Other Surface Observations
Issued by NWS

Home | Current Version | Previous Version | Text Only | Print | Product List | Glossary On
Versions: 1 2 3 4 5 6 7 8 9 10 11 12 13 14 15 16 17 18 19 20 21 22 23 24 25 26 27 28 29 30 31 32 33 34 35 36 37 38 39 40 41 42 43 44 45 46 47 48 49 50
000
SXUS52 KTAE 281918
OSOTAE
OSOTAE
North Florida/South Alabama/Southwest Georgia Weather Roundup
National Weather Service Tallahassee Florida
300 PM EDT TUE APR 28 2015

Note: "fair" indicates few or no clouds below 12,000 feet with no
significant weather and/or obstructions to visibility.

!FLZ017-115-028-034-025-282000
...North Florida...

CITY           SKY/WX    TMP DP  RH WIND       PRES   REMARKS
TALLAHASSEE    CLOUDY    72  65  78 E9        29.80S
APALACHICOLA   CLOUDY    80  68  66 SE5       29.79R
PERRY          CLOUDY    73  67  81 N8        29.79F
CROSS CITY       N/A     77  66  68 NE8       29.76F
JACKSONVILLE   CLOUDY    69  60  73 E17       29.83F
$$

!FLZ112-006-005-002-011-282000
...Florida Panhandle...

CITY           SKY/WX    TMP DP  RH WIND       PRES   REMARKS
MARIANNA       CLOUDY    71  67  87 E6        29.80S
BONIFAY        CLOUDY    69  65  86 VRB3      29.82S
PANAMA CITY NW PTSUNNY   78  66  66 VRB3      29.78F
TYNDALL AFB    CLOUDY    77  66  69 N2        29.79F
TYND DRONE APT MOCLDY    77  70  78 SW2       29.78S
DE FUNIAK SPR  CLOUDY    75  66  73 NE9       29.80F
EGLIN AFB      CLOUDY    77  65  66 S7        29.78F
DESTIN         CLOUDY    77  66  68 SE8       29.78F
HURLBURT       CLOUDY    74  64  69 S7        29.77F
CRESTVIEW      CLOUDY    78  64  61 SW3       29.79F
PENSACOLA      CLOUDY    75  66  73 S8        29.78F
$$

!ALZ063-066-282000
...South Alabama...

CITY           SKY/WX    TMP DP  RH WIND       PRES   REMARKS
DOTHAN         CLOUDY    67  61  81 E7        29.86S
OZARK CAIRNS   CLOUDY    68  60  76 E6        29.82S
FT RUCKER HELI CLOUDY    68  62  81 VRB5      29.81F
RUCKER HELI 3  PTSUNNY   67  63  88 E6        29.83F
RUCKER HELI 2  CLOUDY    67  63  87 E7        29.82F
FLORALA APT    PTSUNNY   73  65  75 E8        29.81F
ANDALUSIA      PTSUNNY   79  64  61 E13       29.80F
TROY           LGT RAIN  67  61  81 E9        29.84S
EUFALA         CLOUDY    71  57  61 SE5       29.83S
MOBILE         CLOUDY    77  65  66 CALM      29.78F
$$

!GAZ120>161-282000
...Southwest and South Central Georgia...

CITY           SKY/WX    TMP DP  RH WIND       PRES   REMARKS
THOMASVILLE    CLOUDY    64  61  88 E8        29.84F
BAINBRIDGE     CLOUDY    73  68  83 E6        29.82S
MOODY AFB      CLOUDY    65  58  77 E13       29.82F
VALDOSTA       CLOUDY    67  60  78 E8        29.83F
MOULTRIE       CLOUDY    66  59  77 E10       29.85S
BLAKELY        CLOUDY    68  63  83 E8        29.84S
ALBANY         CLOUDY    67  58  72 E10       29.86S
TIFTON         CLOUDY    65  56  74 E7        29.85F
FITZGERALD     CLOUDY    67  53  60 E10G16    29.88F
CORDELE        CLOUDY    69  54  57 E12       29.87F
AMERICUS       CLOUDY    68  55  64 SE8       29.88S
HOMERVILLE     CLOUDY    64  61  88 E7        29.85F
$$

!GMZ750-755-770-775-282000
...Coastal and Buoy Obs...

STATION/POSITION TIME  TEMP    WIND        PRES    VSBY  WAVE
                       AIR SEA DIR/SP/G                  HT/PER
                 (UTC) (F)     (DEG/KT/KT) (MB)    (MI)  (FT/S)
KEATON BEACH     1900   74      70/  7/  9 1008.3F
CEDAR KEY        1900   74      50/  8/ 10 1008.2F
C TOWER          1900   74     110/  1/  1 1008.5F
APALACHICOLA BUO 1850   75 75  140/ 12/ 14 1007.5R         6/ 6
PANAMA CITY BUOY 1850   75 76  130/ 10/ 12 1008.3F         5/ 6
MOBILE BUOY      1850   75 76   90/  8/ 10 1008.3F         6/ 6
ORANGE BCH AL BU 1850   72 74   80/  8/  8 1007.7F         4/ 6
$$



USA.gov is the U.S. government's official web portal to all federal, state and local government web resources and services.